Location: Valdosta
(30.8330°N, 83.2790°W)
Time: 21:35:05
(UTC-05:00)

Amateur Radio Satellites - All Passes

Search period start: 20 December 2014 21:05
Search period end: 21 December 2014 21:05
Location: Valdosta, 30.8330°N, 83.2790°W

Satellite Date Start Highest point End Downlink Frequencies (MHz)
Time Altitude Azimuth
HO-68 20 Dec 21:05:12 21:12:19 67° 257° (WSW) 21:19:28 435.675
Oscar 11 20 Dec 21:07:19 21:11:18 37° 74° (ENE) 21:15:18 145.826/435.025
DANDE 20 Dec 21:14:51 21:22:57 85° 83° (E) 21:31:41 436.750
UKube-1 20 Dec 21:15:59 21:19:55 35° 73° (ENE) 21:23:51 .
DOVE 4 20 Dec 21:20:29 21:24:37 78° 258° (WSW) 21:28:47 437.250
AAUSAT CUBESAT 2 20 Dec 21:21:36 21:25:45 63° 259° (W) 21:29:56 437.432
CUBEBUG 2 20 Dec 21:27:56 21:31:46 38° 74° (ENE) 21:35:41 437.445
CANX-2 20 Dec 21:36:27 21:39:49 23° 264° (W) 21:43:13 2200.000
ZACube-1 20 Dec 21:38:09 21:41:56 35° 73° (ENE) 21:45:47 437.345
VELOX 1 20 Dec 21:40:52 21:44:12 21° 70° (ENE) 21:47:32 145.980
CINEMA 3 20 Dec 21:45:05 21:49:11 70° 259° (W) 21:53:23 145.822/145.860
RS-15 20 Dec 21:55:07 22:06:35 89° 64° (ENE) 22:18:33 29.354- 29.394
COMPASS 1 20 Dec 21:58:18 22:01:20 19° 265° (W) 22:04:23 437.405
ISS 20 Dec 21:59:37 22:02:38 35° 230° (SW) 22:05:38 145.825
FUNcube-1 20 Dec 22:04:27 22:08:35 78° 77° (ENE) 22:12:49 145.935
SEEDS 20 Dec 22:05:01 22:07:09 14° 266° (W) 22:09:18 437.485
UWE-3 20 Dec 22:05:31 22:09:40 82° 258° (WSW) 22:13:54 435.000/436.395/437.385
CUSAT 1 20 Dec 22:06:34 22:13:49 37° 270° (W) 22:21:22 437.405
UNISAT 6 20 Dec 22:09:21 22:12:13 16° 94° (E) 22:15:05 437.425
CUTE 1.7 + AOD 2 20 Dec 22:10:16 22:10:50 10° 267° (W) 22:11:25 437.475
DELFI C3 20 Dec 22:13:10 22:16:57 36° 262° (W) 22:20:45 145.870
50 SAT 20 Dec 22:14:33 22:18:20 42° 75° (ENE) 22:22:09 437.505
DX 1 20 Dec 22:21:07 22:25:02 33° 261° (W) 22:28:57 434.975-435.025
QB50P2 20 Dec 22:22:29 22:24:10 12° 94° (E) 22:25:51 145.880/145.840
PCSat 20 Dec 22:22:51 22:25:10 13° 51° (NE) 22:27:29 145.827
AISAT 20 Dec 22:22:54 22:27:18 72° 76° (ENE) 22:31:42 437.250
BEESAT 3 20 Dec 22:28:32 22:32:12 30° 57° (ENE) 22:35:50 437.485
CUBEBUG 1 20 Dec 22:29:12 22:32:52 27° 72° (ENE) 22:36:31 437.445
POLYITAN 1 20 Dec 22:30:30 22:33:08 16° 95° (E) 22:35:45 437.675
NANOSAT C BR1 20 Dec 22:32:33 22:35:14 16° 95° (E) 22:37:55 145.865
SO-50 20 Dec 22:33:58 22:35:54 12° 311° (NW) 22:37:51 436.795
AIST 2 20 Dec 22:36:59 22:39:35 16° 53° (NE) 22:42:09 435.215
HUMSAT D 20 Dec 22:37:27 22:41:32 71° 259° (W) 22:45:42 437.325/437.525
ANTELSAT 20 Dec 22:40:00 22:44:22 37° 98° (E) 22:48:43 437.575/2403.000
Oscar 11 20 Dec 22:45:23 22:47:33 14° 266° (W) 22:49:43 145.826/435.025
QB50P1 20 Dec 22:46:16 22:49:46 24° 97° (E) 22:53:15 145.935-145.965
UKube-1 20 Dec 22:53:45 22:56:07 14° 265° (W) 22:58:30 .
DANDE 20 Dec 23:00:49 23:05:41 17° 275° (W) 23:10:44 436.750
CUBEBUG 2 20 Dec 23:07:02 23:08:37 12° 267° (W) 23:10:12 437.445
BEESAT 2 20 Dec 23:08:10 23:12:20 80° 62° (ENE) 23:16:27 435.950
POPSAT HIP 1 20 Dec 23:14:23 23:18:35 56° 101° (E) 23:22:47 437.405
TIGRISAT 20 Dec 23:15:07 23:19:51 87° 283° (WNW) 23:24:34 435.000
ZACube-1 20 Dec 23:16:27 23:18:24 13° 266° (W) 23:20:22 437.345
VELOX 1 20 Dec 23:16:56 23:20:35 25° 263° (W) 23:24:15 145.980
ESTCUBE 1 20 Dec 23:19:04 23:23:35 69° 259° (WSW) 23:28:06 437.505/2401.250
TISAT 1 20 Dec 23:32:27 23:36:12 32° 73° (ENE) 23:39:57 437.305
SPROUT 20 Dec 23:36:17 23:40:07 33° 73° (ENE) 23:43:57 437.525
BUGSAT 1 20 Dec 23:40:26 23:44:30 84° 283° (WNW) 23:48:36 437.445
DUCHIFAT 1 20 Dec 23:42:18 23:46:30 63° 284° (WNW) 23:50:43 145.980
UNISAT 6 20 Dec 23:44:41 23:49:04 39° 287° (WNW) 23:53:25 437.425
O/OREOS (USA 219) 20 Dec 23:46:27 23:48:57 15° 100° (E) 23:51:27 437.305
YUBILEINY 20 Dec 23:50:29 23:58:57 56° 91° (E) 00:07:22 435.215
QB50P2 20 Dec 23:56:11 00:00:11 40° 286° (WNW) 00:04:12 145.880/145.840
PCSat 21 Dec 00:03:42 00:09:07 76° 247° (WSW) 00:14:30 145.827
POLYITAN 1 21 Dec 00:05:16 00:09:04 32° 287° (WNW) 00:12:53 437.675
CUBEBUG 1 21 Dec 00:06:00 00:09:09 19° 264° (W) 00:12:19 437.445
NANOSAT C BR1 21 Dec 00:07:22 00:11:05 30° 287° (WNW) 00:14:49 145.865
BEESAT 3 21 Dec 00:07:23 00:10:06 17° 251° (WSW) 00:12:48 437.485
RS-15 21 Dec 00:10:46 00:17:35 18° 259° (W) 00:24:35 29.354- 29.394
AIST 2 21 Dec 00:14:22 00:18:20 39° 247° (WSW) 00:22:14 435.215
ANTELSAT 21 Dec 00:17:44 00:20:49 18° 291° (WNW) 00:23:54 437.575/2403.000
QB50P1 21 Dec 00:22:18 00:25:28 21° 289° (WNW) 00:28:37 145.935-145.965
SWISSCUBE 21 Dec 00:24:47 00:28:17 21° 69° (ENE) 00:31:47 437.505
ITUPSAT 1 21 Dec 00:25:34 00:28:53 19° 69° (ENE) 00:32:11 437.325
M-CUBED/EXP-1 PRIME 21 Dec 00:26:32 00:28:22 12° 61° (ENE) 00:30:12 437.505
BEESAT 21 Dec 00:48:48 00:53:07 35° 72° (ENE) 00:57:26 436.000
TISAT 1 21 Dec 01:09:42 01:12:03 15° 265° (W) 01:14:24 437.305
SPROUT 21 Dec 01:13:49 01:16:14 15° 265° (W) 01:18:39 437.525
O/OREOS (USA 219) 21 Dec 01:23:54 01:27:58 35° 293° (WNW) 01:32:03 437.305
VERMONT LUNAR 21 Dec 01:30:10 01:32:54 21° 142° (SE) 01:35:37 437.305
AUBIESAT-1 21 Dec 01:32:12 01:36:52 58° 71° (ENE) 01:41:40 437.475
Oscar 19 21 Dec 01:44:54 01:49:59 53° 100° (E) 01:55:02 437.125/150
STARS 21 Dec 01:45:28 01:48:08 16° 69° (ENE) 01:50:48 437.465
PHONESAT 2.4 21 Dec 01:45:38 01:48:07 18° 141° (SE) 01:50:36 2401.200-2431.200
KKS-1 21 Dec 01:48:34 01:52:19 27° 72° (ENE) 01:56:03 437.445
YUBILEINY 21 Dec 01:49:11 01:56:02 25° 286° (WNW) 02:02:55 435.215
M-CUBED/EXP-1 PRIME 21 Dec 01:58:00 02:02:42 66° 255° (WSW) 02:07:36 437.505
Gurwin Techsat 1B 21 Dec 02:00:05 02:02:46 14° 94° (E) 02:05:27 435.225
SWISSCUBE 21 Dec 02:01:38 02:05:53 32° 262° (W) 02:10:09 437.505
ITAMSAT 1 21 Dec 02:01:55 02:06:10 26° 97° (E) 02:10:24 435.822/435.867
ITUPSAT 1 21 Dec 02:02:05 02:06:27 35° 261° (W) 02:10:51 437.325
BEESAT 21 Dec 02:27:42 02:30:58 18° 265° (W) 02:34:15 436.000
VERMONT LUNAR 21 Dec 03:07:33 03:11:01 54° 334° (NNW) 03:14:29 437.305
AUBIESAT-1 21 Dec 03:10:17 03:12:03 12° 263° (W) 03:13:50 437.475
HORYU 2 21 Dec 03:15:59 03:19:59 31° 98° (E) 03:23:58 437.375
STARS 21 Dec 03:20:20 03:24:17 33° 261° (W) 03:28:15 437.465
PHONESAT 2.4 21 Dec 03:22:56 03:26:32 67° 333° (NNW) 03:30:09 2401.200-2431.200
KKS-1 21 Dec 03:25:42 03:28:53 19° 264° (W) 03:32:05 437.445
Oscar 19 21 Dec 03:26:02 03:28:48 15° 294° (WNW) 03:31:34 437.125/150
Gurwin Techsat 1B 21 Dec 03:37:48 03:42:57 53° 286° (WNW) 03:48:05 435.225
ITAMSAT 1 21 Dec 03:41:09 03:45:32 29° 290° (WNW) 03:49:55 435.822/435.867
AO-7 21 Dec 03:54:34 04:01:56 34° 99° (E) 04:09:14 29.400- 29.500
AIST 1 21 Dec 04:16:11 04:20:27 80° 265° (W) 04:24:42
JAS-2 21 Dec 04:35:59 04:39:33 18° 94° (E) 04:43:01 435.910
MOZHAYETS 4 21 Dec 04:36:13 04:40:46 58° 76° (ENE) 04:45:21
VERMONT LUNAR 21 Dec 04:47:12 04:49:48 19° 350° (N) 04:52:25 437.305
HORYU 2 21 Dec 04:53:16 04:56:23 19° 291° (WNW) 04:59:29 437.375
PHONESAT 2.4 21 Dec 05:02:49 05:05:38 21° 349° (NNW) 05:08:28 2401.200-2431.200
PRISM 21 Dec 05:12:37 05:15:31 18° 70° (ENE) 05:18:25 437.425
SO-50 21 Dec 05:28:32 05:31:25 15° 51° (NE) 05:34:18 436.795
CUTE-I 21 Dec 05:35:18 05:37:22 12° 93° (E) 05:39:26 437.470
GONETS M04 21 Dec 05:45:07 05:53:51 68° 92° (E) 06:02:35
AO-7 21 Dec 05:46:54 05:54:41 45° 294° (WNW) 06:02:26 29.400- 29.500
CUBESAT XI-V 21 Dec 06:01:06 06:05:13 31° 72° (ENE) 06:09:18 437.345
JAS-2 21 Dec 06:19:50 06:24:51 38° 289° (WNW) 06:29:36 435.910
STRAND 1 21 Dec 06:22:18 06:27:12 49° 73° (ENE) 06:32:06 437.568
VERMONT LUNAR 21 Dec 06:26:24 06:28:56 18° 8° (N) 06:31:28 437.305
Cubesat XI-IV 21 Dec 06:39:19 06:44:36 64° 102° (ESE) 06:49:51 437.490
PHONESAT 2.4 21 Dec 06:42:33 06:45:09 18° 6° (N) 06:47:45 2401.200-2431.200
PRISM 21 Dec 06:47:11 06:50:48 27° 262° (W) 06:54:25 437.425
SO-50 21 Dec 07:07:28 07:12:16 55° 246° (WSW) 07:17:02 436.795
CUTE-I 21 Dec 07:12:29 07:17:43 60° 286° (WNW) 07:22:56 437.470
CUBESAT XI-V 21 Dec 07:39:18 07:42:37 19° 265° (W) 07:45:56 437.345
GONETS M04 21 Dec 07:45:03 07:51:14 21° 288° (WNW) 07:57:27
STRAND 1 21 Dec 08:03:51 08:06:33 14° 266° (W) 08:09:16 437.568
VERMONT LUNAR 21 Dec 08:04:22 08:07:47 46° 24° (NNE) 08:11:11 437.305
PHONESAT 2.4 21 Dec 08:20:57 08:24:25 41° 23° (NNE) 08:27:53 2401.200-2431.200
Cubesat XI-IV 21 Dec 08:21:51 08:24:05 13° 295° (WNW) 08:26:18 437.490
CUTE 1.7 + AOD 2 21 Dec 08:23:33 08:25:28 13° 94° (E) 08:27:22 437.475
BRITE-PL 21 Dec 08:38:38 08:42:48 27° 98° (E) 08:47:13 437.365/2234.400
HO-68 21 Dec 08:39:29 08:45:45 32° 98° (E) 08:51:58 435.675
MaSat-1 21 Dec 08:49:06 08:51:27 54° 292° (WNW) 08:53:40 437.345
GOMX 1 21 Dec 09:01:56 09:06:25 35° 99° (E) 09:11:09 467.674
Oscar 11 21 Dec 09:03:07 09:03:51 10° 93° (E) 09:04:35 145.826/435.025
AAUSAT CUBESAT 2 21 Dec 09:11:02 09:14:47 30° 98° (E) 09:18:29 437.432
DOVE 4 21 Dec 09:24:16 09:28:57 44° 99° (E) 09:33:52 437.250
CUBEBUG 2 21 Dec 09:25:43 09:28:17 15° 94° (E) 09:30:52 437.445
CANX-2 21 Dec 09:26:29 09:30:49 88° 282° (WNW) 09:35:06 2200.000
CUSAT 1 21 Dec 09:30:29 09:33:35 38° 91° (E) 09:37:35 437.405
ZACube-1 21 Dec 09:34:16 09:35:59 12° 93° (E) 09:37:42 437.345
ANTELSAT 21 Dec 09:35:21 09:38:06 17° 69° (ENE) 09:40:54 437.575/2403.000
VERMONT LUNAR 21 Dec 09:43:00 09:45:58 25° 217° (SW) 09:48:55 437.305
CINEMA 3 21 Dec 09:44:59 09:49:35 43° 99° (E) 09:54:18 145.822/145.860
COMPASS 1 21 Dec 09:46:26 09:50:42 78° 283° (WNW) 09:54:55 437.405
SEEDS 21 Dec 09:53:00 09:57:10 52° 285° (WNW) 10:01:18 437.485
CUTE 1.7 + AOD 2 21 Dec 09:57:28 10:01:29 39° 286° (WNW) 10:05:28 437.475
FUNcube-1 21 Dec 09:59:00 10:02:43 24° 97° (E) 10:06:26 145.935
DELFI C3 21 Dec 09:59:04 10:03:01 45° 99° (E) 10:06:56 145.870
PHONESAT 2.4 21 Dec 09:59:47 10:03:02 31° 216° (SW) 10:06:17 2401.200-2431.200
UWE-3 21 Dec 10:01:07 10:05:15 32° 98° (E) 10:09:25 435.000/436.395/437.385
O/OREOS (USA 219) 21 Dec 10:01:33 10:03:40 13° 61° (ENE) 10:05:46 437.305
POPSAT HIP 1 21 Dec 10:03:06 10:06:16 21° 71° (ENE) 10:09:26 437.405
RS-15 21 Dec 10:04:14 10:11:16 20° 102° (ESE) 10:18:12 29.354- 29.394
TIGRISAT 21 Dec 10:08:57 10:12:59 40° 74° (ENE) 10:17:07 435.000
YUBILEINY 21 Dec 10:09:01 10:14:59 20° 72° (ENE) 10:20:54 435.215
DX 1 21 Dec 10:14:33 10:18:52 63° 101° (ESE) 10:23:09 434.975-435.025
BRITE-PL 21 Dec 10:17:11 10:21:09 26° 288° (WNW) 10:25:21 437.365/2234.400
AISAT 21 Dec 10:20:22 10:23:46 22° 97° (E) 10:27:11 437.250
DANDE 21 Dec 10:25:42 10:28:44 39° 284° (WNW) 10:32:39 436.750
BUGSAT 1 21 Dec 10:25:51 10:29:28 31° 73° (ENE) 10:33:03 437.445
HO-68 21 Dec 10:26:55 10:33:22 38° 292° (WNW) 10:39:48 435.675
HUMSAT D 21 Dec 10:27:50 10:31:37 29° 97° (E) 10:35:23 437.325/437.525
DUCHIFAT 1 21 Dec 10:29:47 10:33:47 45° 75° (ENE) 10:37:47 145.980
Oscar 11 21 Dec 10:36:01 10:40:12 48° 285° (WNW) 10:44:23 145.826/435.025
UNISAT 6 21 Dec 10:38:09 10:42:29 83° 258° (WSW) 10:46:56 437.425
GOMX 1 21 Dec 10:40:42 10:44:17 21° 289° (WNW) 10:48:02 467.674
QB50P2 21 Dec 10:43:39 10:47:50 72° 77° (ENE) 10:52:03 145.880/145.840
UKube-1 21 Dec 10:44:56 10:49:10 55° 285° (WNW) 10:53:23 .
AAUSAT CUBESAT 2 21 Dec 10:47:31 10:50:09 16° 290° (WNW) 10:52:46 437.432
POLYITAN 1 21 Dec 10:52:44 10:56:57 86° 258° (WSW) 11:01:10 437.675
NANOSAT C BR1 21 Dec 10:54:19 10:58:31 84° 258° (WSW) 11:02:44 145.865
CUBEBUG 2 21 Dec 11:00:38 11:05:03 42° 286° (WNW) 11:09:32 437.445
DOVE 4 21 Dec 11:03:23 11:06:21 16° 290° (WNW) 11:09:25 437.250
ZACube-1 21 Dec 11:08:06 11:12:30 48° 285° (WNW) 11:16:55 437.345
QB50P1 21 Dec 11:08:59 11:13:05 53° 260° (W) 11:17:12 145.935-145.965
ANTELSAT 21 Dec 11:10:42 11:14:35 32° 262° (W) 11:18:34 437.575/2403.000
VELOX 1 21 Dec 11:12:21 11:16:47 87° 283° (WNW) 11:21:12 145.980
JUGNU 21 Dec 11:14:56 11:19:08 20° 167° (SSE) 11:23:21 437.505
ESTCUBE 1 21 Dec 11:17:44 11:21:54 37° 99° (E) 11:26:03 437.505/2401.250
CINEMA 3 21 Dec 11:23:30 11:26:25 16° 291° (WNW) 11:29:22 145.822/145.860
50 SAT 21 Dec 11:35:11 11:39:11 48° 285° (WNW) 11:43:11 437.505
FUNcube-1 21 Dec 11:35:15 11:38:54 24° 289° (WNW) 11:42:34 145.935
DELFI C3 21 Dec 11:37:03 11:37:49 10° 292° (WNW) 11:38:35 145.870
UWE-3 21 Dec 11:38:14 11:41:31 19° 290° (WNW) 11:44:50 435.000/436.395/437.385
POPSAT HIP 1 21 Dec 11:38:40 11:42:00 23° 263° (W) 11:45:21 437.405
O/OREOS (USA 219) 21 Dec 11:38:56 11:43:15 45° 255° (WSW) 11:47:35 437.305
TIGRISAT 21 Dec 11:48:05 11:49:53 12° 267° (W) 11:51:43 435.000
AISAT 21 Dec 11:56:39 12:00:17 25° 289° (WNW) 12:03:55 437.250
CUBEBUG 1 21 Dec 11:59:12 12:03:31 68° 284° (WNW) 12:07:49 437.445
BUGSAT 1 21 Dec 12:02:41 12:04:58 14° 265° (W) 12:07:14 437.445
YUBILEINY 21 Dec 12:03:46 12:12:21 69° 268° (W) 12:20:58 435.215
HUMSAT D 21 Dec 12:04:10 12:07:09 18° 290° (WNW) 12:10:09 437.325/437.525
DUCHIFAT 1 21 Dec 12:09:21 12:09:48 10° 267° (W) 12:10:15 145.980
RS-15 21 Dec 12:11:15 12:22:16 81° 297° (WNW) 12:33:15 29.354- 29.394
BEESAT 3 21 Dec 12:18:36 12:21:41 21° 110° (ESE) 12:24:48 437.485
SRMSAT 21 Dec 12:20:15 12:24:01 17° 165° (SSE) 12:27:47 437.500
AIST 2 21 Dec 12:32:12 12:33:14 11° 107° (ESE) 12:34:16 435.215
ESTCUBE 1 21 Dec 12:55:51 12:58:24 15° 292° (WNW) 13:00:57 437.505/2401.250
BEESAT 21 Dec 12:56:14 12:58:38 14° 94° (E) 13:01:02 436.000
Oscar 19 21 Dec 12:56:26 13:01:16 43° 73° (ENE) 13:06:08 437.125/150
PCSat 21 Dec 12:57:18 13:02:00 31° 108° (ESE) 13:06:43 145.827
TISAT 1 21 Dec 12:58:07 13:02:17 59° 284° (WNW) 13:06:26 437.305
BEESAT 2 21 Dec 12:58:09 13:02:09 59° 115° (ESE) 13:06:14 435.950
ISS 21 Dec 12:59:46 13:03:04 87° 316° (NW) 13:06:22 145.825
JUGNU 21 Dec 13:02:38 13:07:39 28° 177° (S) 13:12:39 437.505
SPROUT 21 Dec 13:04:05 13:08:17 54° 285° (WNW) 13:12:29 437.525
ITAMSAT 1 21 Dec 13:15:00 13:19:00 23° 69° (ENE) 13:23:00 435.822/435.867
Gurwin Techsat 1B 21 Dec 13:16:29 13:19:06 14° 66° (ENE) 13:21:42 435.225
M-CUBED/EXP-1 PRIME 21 Dec 13:48:33 13:51:05 16° 98° (E) 13:53:29 437.505
BEESAT 3 21 Dec 13:56:20 13:59:41 24° 304° (NW) 14:03:06 437.485
SWISSCUBE 21 Dec 14:07:04 14:11:49 79° 284° (WNW) 14:16:33 437.505
AIST 2 21 Dec 14:07:17 14:11:21 48° 300° (WNW) 14:15:29 435.215
SRMSAT 21 Dec 14:07:45 14:12:40 27° 174° (S) 14:17:33 437.500
ITUPSAT 1 21 Dec 14:07:53 14:12:39 86° 283° (WNW) 14:17:24 437.325
HORYU 2 21 Dec 14:10:37 14:13:14 16° 68° (ENE) 14:15:51 437.375
RS-15 21 Dec 14:29:07 14:36:29 20° 321° (NW) 14:43:55 29.354- 29.394
BEESAT 21 Dec 14:32:06 14:36:37 44° 287° (WNW) 14:41:06 436.000
Oscar 19 21 Dec 14:37:34 14:40:43 16° 266° (W) 14:43:54 437.125/150
BEESAT 2 21 Dec 14:39:56 14:40:45 11° 310° (NW) 14:41:33 435.950
PCSat 21 Dec 14:40:45 14:45:19 27° 302° (WNW) 14:49:54 145.827
AO-7 21 Dec 14:48:10 14:54:59 29° 62° (ENE) 15:01:49 29.400- 29.500
JUGNU 21 Dec 14:51:19 14:56:12 26° 187° (S) 15:01:03 437.505
Gurwin Techsat 1B 21 Dec 14:53:18 14:58:30 58° 259° (W) 15:03:44 435.225
ITAMSAT 1 21 Dec 14:53:39 14:58:15 32° 262° (W) 15:02:52 435.822/435.867
AUBIESAT-1 21 Dec 14:55:47 14:59:55 70° 288° (WNW) 15:03:41 437.475
STARS 21 Dec 15:15:19 15:19:45 68° 102° (ESE) 15:24:10 437.465
KKS-1 21 Dec 15:21:01 15:25:27 65° 284° (WNW) 15:29:53 437.445
M-CUBED/EXP-1 PRIME 21 Dec 15:22:33 15:26:09 28° 294° (WNW) 15:29:29 437.505
HORYU 2 21 Dec 15:45:26 15:49:32 37° 261° (W) 15:53:41 437.375
SRMSAT 21 Dec 15:56:24 16:01:21 27° 185° (S) 16:06:17 437.500
GONETS M04 21 Dec 16:03:32 16:10:22 25° 73° (ENE) 16:17:07
JAS-2 21 Dec 16:23:11 16:30:33 50° 73° (ENE) 16:37:22 435.910
MOZHAYETS 4 21 Dec 16:37:54 16:41:25 21° 96° (E) 16:44:54
AO-7 21 Dec 16:39:15 16:47:16 53° 257° (WSW) 16:55:23 29.400- 29.500
AIST 1 21 Dec 16:39:50 16:44:13 79° 95° (E) 16:48:35
JUGNU 21 Dec 16:41:10 16:44:40 16° 196° (SSW) 16:48:09 437.505
CUTE-I 21 Dec 16:52:23 16:54:41 13° 65° (ENE) 16:56:58 437.470
SRMSAT 21 Dec 17:46:01 17:49:59 19° 194° (SSW) 17:53:57 437.500
Cubesat XI-IV 21 Dec 17:55:56 18:01:11 61° 74° (ENE) 18:06:26 437.490
GONETS M04 21 Dec 17:59:04 18:07:31 57° 269° (W) 18:15:54
CUBESAT XI-V 21 Dec 18:05:31 18:07:06 12° 93° (E) 18:08:40 437.345
JAS-2 21 Dec 18:09:13 18:15:32 27° 263° (W) 18:21:33 435.910
MOZHAYETS 4 21 Dec 18:14:41 18:18:33 27° 288° (WNW) 18:22:23
MaSat-1 21 Dec 18:24:06 18:26:13 24° 66° (ENE) 18:28:26 437.345
CUTE-I 21 Dec 18:28:53 18:34:09 63° 258° (WSW) 18:39:25 437.470
PRISM 21 Dec 18:35:09 18:39:15 63° 101° (ESE) 18:43:19 437.425
STRAND 1 21 Dec 18:38:54 18:43:07 26° 97° (E) 18:47:19 437.568
HO-68 21 Dec 19:05:23 19:08:43 14° 59° (ENE) 19:12:01 435.675
RS-15 21 Dec 19:08:47 19:15:47 18° 37° (NE) 19:22:54 29.354- 29.394
DANDE 21 Dec 19:29:11 19:33:59 16° 71° (ENE) 19:38:56 436.750
SO-50 21 Dec 19:39:09 19:41:18 13° 107° (ESE) 19:43:28 436.795
Cubesat XI-IV 21 Dec 19:39:34 19:41:33 12° 267° (W) 19:43:33 437.490
CUBESAT XI-V 21 Dec 19:40:18 19:44:43 48° 285° (WNW) 19:49:07 437.345
BRITE-PL 21 Dec 19:46:42 19:48:54 14° 70° (ENE) 19:51:04 437.365/2234.400
AAUSAT CUBESAT 2 21 Dec 19:59:38 20:00:49 11° 68° (ENE) 20:02:00 437.432
GOMX 1 21 Dec 20:06:55 20:09:35 17° 70° (ENE) 20:12:16 467.674
CUSAT 1 21 Dec 20:12:58 20:20:33 41° 77° (ENE) 20:28:24 437.405
CANX-2 21 Dec 20:14:31 20:18:18 32° 73° (ENE) 20:22:08 2200.000
STRAND 1 21 Dec 20:17:55 20:22:10 28° 290° (WNW) 20:26:26 437.568
DOVE 4 21 Dec 20:26:25 20:29:29 21° 71° (ENE) 20:32:35 437.250
COMPASS 1 21 Dec 20:32:55 20:36:44 34° 73° (ENE) 20:40:34 437.405
SEEDS 21 Dec 20:39:47 20:43:52 51° 75° (ENE) 20:48:01 437.485
CINEMA 3 21 Dec 20:43:15 20:46:07 18° 70° (ENE) 20:49:02 145.822/145.860
DELFI C3 21 Dec 20:43:54 20:46:13 15° 69° (ENE) 20:48:32 145.870
CUTE 1.7 + AOD 2 21 Dec 20:44:40 20:48:53 72° 77° (ENE) 20:53:10 437.475
HO-68 21 Dec 20:48:14 20:55:26 89° 255° (WSW) 21:02:39 435.675
UWE-3 21 Dec 20:55:32 20:57:19 13° 68° (ENE) 20:59:07 435.000/436.395/437.385
